Hourly Data Report for October 23, 2019

All times are specified in Local Standard Time (LST). Add 1 hour to adjust for Daylight Saving Time where and when it is observed.

EUREKA CLIMATE
NUNAVUT
Current Station Operator: ECCC - MSC

79°59'21.000" N
85°56'02.000" W
10.00 m
2401199
71613
NEK

Download Data

Hourly Data (October 2019)
Hourly Data Report for October 23, 2019
TIME Temp Definition
°C
Dew Point Definition
°C
Rel Hum Definition
%
Wind Dir Definition
10's deg

Wind Spd Definition
km/h
Visibility Definition
km
Stn Press Definition
kPa
Hmdx Definition


Wind Chill Definition


Weather Definition


00:00 -19.0 -20.5 88 11 7   101.87   -24 LegendNANA
01:00 -18.4 -19.9 88 4 3   101.83   -21 LegendNANA
02:00 -17.4 -18.8 89 13 4   101.80   -21 LegendNANA
03:00 -17.1 -18.5 89 9 6   101.78   -22 LegendNANA
04:00 -16.6 -17.9 90 12 6   101.78   -21 LegendNANA
05:00 -15.7 -16.9 91 12 7   101.79   -21 LegendNANA
06:00 -15.0 -16.2 91 11 7   101.76   -20 LegendNANA
07:00 -15.1 -16.2 91 11 7   101.74   -20 LegendNANA
08:00 -14.1 -15.2 91 10 4   101.72   -17 LegendNANA
09:00 -13.6 -14.7 91 12 6   101.69   -18 LegendNANA
10:00 -13.2 -14.3 91 3 6   101.65   -17 LegendNANA
11:00 -12.5 -13.5 92 9 4   101.64   -15 LegendNANA
12:00 -12.0 -13.1 92 11 5   101.63   -15 LegendNANA
13:00 -11.5 -12.5 92 8 4   101.60   -14 LegendNANA
14:00 -10.9 -12.0 91 12 5   101.58   -14 LegendNANA
15:00 -10.6 -11.7 91 11 4   101.55   -13 LegendNANA
16:00 -9.5 -10.8 90 2 11   101.50   -15 LegendNANA
17:00 -10.7 -11.7 92 11 3   101.47   -13 LegendNANA
18:00 -8.4 -9.4 93 3 13   101.41   -14 LegendNANA
19:00 -9.0 -10.9 86 2 17   101.36   -16 LegendNANA
20:00 -9.6 -11.6 86 2 15   101.31   -16 LegendNANA
21:00 -10.2 -11.6 89 10 5   101.28   -13 LegendNANA
22:00 -9.8 -11.3 89 13 4   101.23   -12 LegendNANA
23:00 -7.6 -10.3 81 15 2   101.19   -9 LegendNANA

Notes on Data Quality.

Legend

  • E = Estimated
  • M = Missing
  • NA = Not Available
Date modified: